Location: Hokitika
(42.7170°S, 170.9670°E)
Time: 17:36:46
(UTC+13:00)

Cosmos 540 Rocket - Pass Details

Date: 24 January 2019
Orbit: 740 x 754 km, 74.1° (Epoch: 22 October)

Event Time Altitude Azimuth Distance (km) Brightness Sun altitude
Rises 22:09:45 0° 194° (SSW) 3,248 7.7 -10.3°
Reaches altitude 10° 22:12:18 10° 186° (S) 2,315 6.7 -10.6°
Maximum altitude 22:17:13 40° 117° (ESE) 1,127 4.2 -11.3°
Enters shadow 22:20:55 16° 54° (NE) 1,888 4.9 -11.9°
